Probability
1 0 0 1 2 3 3 3 5 5 4 3 3 4 3 3 1 0 0 0 0 0 0 0 0 0 0 0 0 0 0 0 1 1 0 0 0 0 0 0 0 1 1
1 0 0 0 1 2 2 3 4 4 4 4 4 4 3 3 2 1 0 0 0 0 0 0 0 0 0 0 0 0 0 0 1 1 1 0 0 0 0 0 0 0 1
1 0 0 0 1 2 3 3 3 3 4 4 5 4 4 3 2 1 0 0 0 0 0 0 0 0 0 0 0 0 0 0 1 1 1 0 0 0 0 0 0 0 0
0 0 0 0 1 2 3 3 3 3 4 4 5 5 5 4 3 1 0 0 0 0 0 0 1 1 1 1 0 0 0 0 0 0 0 0 0 0 0 0 0 0 0
0 0 1 0 1 2 3 3 3 3 3 4 5 6 6 5 4 2 1 0 0 0 0 0 1 2 2 2 1 1 0 0 0 0 0 0 0 0 0 0 0 0 0
0 1 2 1 1 3 4 4 3 3 3 4 5 6 6 6 5 4 2 1 0 0 0 0 1 1 2 2 2 2 1 0 0 0 0 0 0 0 0 0 0 0 0
2 3 3 3 3 4 5 5 4 3 3 3 4 5 6 6 6 5 4 2 1 0 0 0 0 0 1 1 1 2 1 0 0 0 0 0 0 0 0 0 0 0 0
4 5 5 5 6 6 6 5 4 3 3 3 3 4 5 5 5 5 5 3 1 0 0 0 0 0 0 0 0 1 1 0 0 0 0 0 0 0 0 0 0 0 0
4 5 5 5 6 6 5 4 3 3 3 2 2 3 3 4 4 4 3 2 0 0 0 0 0 0 0 0 0 0 0 0 0 0 0 0 0 0 0 0 0 0 0
3 4 4 4 4 4 4 3 2 2 2 1 1 1 1 1 2 2 2 2 1 0 0 0 0 0 0 0 0 0 0 0 0 0 0 0 0 0 0 0 0 0 0
2 3 3 3 3 3 3 2 1 2 1 1 0 0 0 0 1 1 2 2 1 0 0 0 0 0 0 0 0 0 0 0 0 0 0 0 0 0 0 0 0 0 0
1 2 2 3 3 3 3 2 1 1 1 1 1 0 0 0 0 1 2 2 1 0 0 0 0 0 0 0 0 0 0 0 0 0 0 0 0 0 0 0 0 0 0
1 1 2 3 3 3 3 2 1 0 0 0 0 0 0 0 0 1 2 1 1 0 0 0 0 0 0 0 0 0 0 0 0 0 0 0 0 0 0 0 0 0 0
1 2 3 3 3 3 2 2 1 0 0 0 0 0 0 0 0 0 0 0 0 0 0 0 0 0 0 0 0 0 0 0 0 0 0 0 0 0 0 0 0 0 0
1 2 3 3 2 1 1 1 0 0 0 0 0 0 0 0 0 0 0 0 1 1 1 1 1 0 0 0 0 0 0 0 0 0 0 0 0 0 0 0 0 0 0
0 1 1 1 1 0 0 0 0 0 0 0 0 1 1 0 0 0 0 0 1 2 2 2 1 0 0 0 0 0 0 0 0 0 0 0 0 0 0 0 0 0 0
0 0 0 0 0 0 0 0 0 0 0 0 0 0 1 1 0 0 0 0 0 1 2 1 1 0 0 0 0 0 0 0 0 0 0 0 0 0 0 0 0 0 0
0 0 0 0 0 0 0 0 0 0 0 0 0 0 0 0 0 0 0 0 0 0 0 0 0 0 0 0 0 0 0 0 0 0 0 0 0 0 0 0 0 0 0
0 0 0 0 0 0 0 0 0 0 0 0 0 0 0 0 0 0 0 0 0 0 0 0 0 0 0 0 0 0 0 0 0 0 0 0 0 0 0 0 0 0 0
0 0 0 0 0 0 0 0 0 0 0 0 0 0 0 0 0 0 0 0 0 0 0 0 0 0 0 0 0 0 0 0 0 0 0 0 0 0 0 0 0 0 0
0 1 1 1 1 2 1 0 0 0 0 0 0 0 0 0 0 0 0 0 0 0 0 0 0 0 0 0 0 0 0 0 0 0 0 0 0 0 0 0 0 0 0
1 2 2 2 3 3 2 1 0 0 0 0 0 0 0 0 0 0 0 0 0 0 0 0 0 0 0 0 0 0 0 0 0 0 0 0 0 0 0 0 0 0 0
1 2 2 3 3 2 2 2 2 2 1 0 0 0 0 0 1 1 0 0 0 0 0 0 0 0 0 0 0 0 0 0 0 0 0 0 0 0 0 0 0 0 0
1 2 3 3 2 1 2 2 3 3 2 2 1 1 1 1 2 2 1 1 1 0 0 0 0 0 0 0 0 0 0 0 0 0 0 0 0 0 0 0 0 0 0
0 1 2 2 2 2 2 3 3 3 3 3 3 2 2 3 3 2 2 2 1 0 0 0 0 0 0 0 0 0 0 0 0 0 0 0 0 0 0 0 0 0 0
0 0 1 1 1 1 2 3 3 3 3 4 4 4 3 3 3 2 1 1 1 0 0 0 0 0 0 0 0 0 0 0 0 0 0 0 0 0 0 0 0 0 0
Wind_Speed
7 7 6 6 5 4 5 6 6 5 4 3 2 2 2 1 2 2 3 2 2 3 3 2 2 2 2 2 2 3 2 2 2 2 1 1 1 1 1 1 2 2 3
8 8 7 6 6 5 4 5 5 4 5 3 3 3 3 2 2 2 2 2 2 2 3 3 2 2 2 2 2 2 1 1 1 1 1 1 1 2 1 1 1 2 1
8 9 7 6 6 5 5 4 5 5 5 4 3 2 2 1 2 2 1 1 2 2 2 2 2 2 2 2 1 1 2 1 1 0 1 2 1 0 1 1 1 1 1
7 7 6 6 5 4 4 4 4 5 5 5 3 3 3 2 3 2 2 2 2 2 2 1 2 2 2 2 2 2 1 1 0 1 1 0 2 2 0 1 1 1 1
6 7 6 6 5 5 4 3 4 4 4 4 4 3 2 2 2 3 4 3 2 2 3 2 1 2 2 2 2 2 1 1 1 0 1 1 0 1 2 1 0 0 0
6 6 7 6 4 5 4 4 4 4 4 4 4 4 3 3 3 3 3 2 2 2 3 2 1 2 1 2 2 2 1 0 1 0 0 0 0 0 1 1 1 1 1
6 5 6 6 5 5 5 4 4 4 4 4 4 4 4 3 3 3 3 3 2 2 2 2 2 2 1 2 2 2 2 2 1 1 0 0 1 0 0 1 1 1 1
5 5 5 5 5 5 5 5 5 4 4 3 3 3 4 2 2 3 3 3 2 3 3 3 3 3 2 2 2 1 1 1 1 1 1 0 1 1 0 1 1 1 0
4 5 5 5 5 5 4 4 4 4 4 3 3 3 3 3 3 3 3 3 3 3 3 4 4 3 3 3 2 2 2 1 1 1 1 1 1 0 0 0 1 2 1
4 4 5 5 4 4 4 3 3 3 3 3 3 2 2 3 3 3 3 3 3 3 3 4 4 4 3 3 2 1 1 2 1 1 1 1 1 1 0 0 1 0 2
3 4 4 4 4 5 4 3 3 2 2 2 2 2 1 2 2 2 3 3 3 3 3 4 3 4 4 4 3 3 3 2 2 2 3 2 2 1 1 1 0 1 0
4 4 4 4 4 5 4 3 3 3 3 2 1 2 2 2 2 2 2 3 3 3 3 3 3 3 3 3 4 4 4 4 3 3 3 3 2 2 1 1 1 1 1
3 4 4 4 3 4 4 3 3 3 2 2 2 2 2 2 2 2 2 2 2 2 2 3 3 3 3 3 3 4 5 4 4 3 3 3 3 3 2 2 1 1 1
1 3 4 3 3 3 3 3 3 3 3 2 2 2 2 2 2 2 2 2 2 2 2 2 2 2 2 3 3 3 3 4 4 4 3 3 4 4 4 3 2 2 1
1 2 2 2 2 2 2 2 2 2 3 2 3 3 2 2 2 2 2 2 2 2 2 2 2 2 2 2 2 2 2 2 2 2 2 2 2 3 2 2 2 2 1
2 2 1 1 2 2 2 2 2 2 2 2 2 2 2 2 2 2 2 2 2 2 2 2 2 2 1 1 2 2 2 2 2 2 1 2 2 3 3 3 3 3 3
4 3 2 1 1 1 2 2 2 2 2 2 1 1 1 1 2 2 2 2 2 2 2 2 2 2 2 3 3 3 2 2 2 2 2 2 2 2 2 3 4 3 3
4 3 3 3 2 0 0 0 1 2 1 1 1 1 1 1 1 2 3 3 3 3 3 2 2 2 2 4 4 5 3 2 2 2 2 2 2 3 3 2 2 2 3
3 3 3 2 2 2 1 0 1 1 1 1 1 1 1 1 1 2 3 3 2 2 3 3 3 3 3 4 4 4 2 2 2 2 2 2 2 3 3 2 2 2 2
4 4 3 2 2 2 1 0 1 0 1 1 1 1 2 2 2 2 2 2 2 2 2 2 2 3 3 4 4 5 2 2 2 2 2 2 2 2 2 2 2 3 3
4 4 3 3 3 2 1 1 1 1 1 1 1 1 2 2 2 2 1 1 2 2 2 2 2 2 3 4 5 5 2 3 2 2 1 1 3 2 2 2 2 3 3
4 4 3 3 2 2 2 2 2 1 1 1 2 1 1 2 1 2 1 1 2 2 2 2 2 2 2 3 4 5 4 2 2 2 1 2 2 2 2 2 3 3 3
3 3 3 3 3 3 2 2 2 1 1 1 1 1 2 2 2 2 2 2 2 2 2 2 2 2 1 2 4 5 5 5 2 1 2 2 2 2 1 3 4 3 2
3 3 3 3 3 4 3 3 3 2 2 2 2 2 2 2 1 1 2 2 2 2 2 3 3 2 2 2 2 3 3 3 3 2 2 2 2 2 3 2 2 2 2
2 2 2 3 3 4 3 4 4 3 2 2 2 2 2 2 2 2 1 2 2 2 3 3 3 3 3 3 4 3 2 2 3 2 2 1 1 1 1 1 2 2 2
2 2 2 2 3 4 4 4 4 3 3 2 2 1 1 1 2 1 1 0 1 2 2 2 2 2 3 5 6 5 4 4 5 3 2 2 2 3 2 2 2 2 2
Wind_Direction
172 162 155 145 143 141 138 133 140 148 129 122 119 118 115 111 98 97 95 85 78 97 100 88 82 81 91 100 105 104 99 88 108 100 78 22 50 78 67 76 75 74 84
167 159 158 154 157 154 149 146 146 148 135 134 136 139 131 134 121 106 106 115 97 92 104 108 100 90 83 78 86 91 106 145 178 134 126 92 8 356 81 94 113 105 82
167 159 163 158 156 155 155 154 154 147 137 140 129 121 107 125 115 117 114 131 110 97 94 102 118 130 122 112 113 126 115 163 288 16 127 144 170 254 359 45 79 95 97
158 153 154 153 156 154 153 155 156 146 140 138 141 146 157 167 157 149 152 158 129 120 114 115 123 131 123 135 173 134 139 125 228 316 323 165 140 143 167 334 30 71 95
151 147 149 149 155 151 147 146 141 137 140 140 147 166 168 161 150 143 150 159 154 158 160 159 157 148 146 160 148 128 157 153 177 202 313 350 4 179 146 178 257 9 31
145 145 143 140 144 140 142 145 146 142 139 146 161 182 176 163 155 152 152 159 161 167 170 163 155 144 143 147 147 147 154 173 190 208 184 167 237 249 134 162 187 182 228
142 140 143 147 145 144 148 152 151 149 155 173 185 185 177 177 179 170 171 173 170 171 175 169 166 154 153 157 160 158 183 198 207 222 237 31 342 338 116 129 171 171 202
135 138 141 141 142 148 152 157 159 161 164 184 195 185 170 175 179 180 175 178 180 178 174 169 168 168 169 170 159 161 202 192 203 196 146 87 326 12 57 144 144 165 247
133 139 146 145 143 145 146 155 158 160 165 191 203 190 173 180 180 186 184 176 182 179 169 167 172 172 173 176 167 173 200 181 199 184 159 161 207 303 344 66 147 158 188
137 135 140 144 145 145 147 150 154 168 172 186 205 186 184 186 182 187 189 185 183 176 177 178 177 178 179 179 170 170 195 179 181 179 174 186 176 176 176 242 277 206 173
138 136 133 143 139 133 141 155 160 154 167 193 199 169 202 193 173 197 191 176 181 183 186 189 189 187 186 182 174 192 195 187 201 209 191 191 184 185 187 184 225 285 137
127 128 136 141 139 144 161 172 174 168 173 186 194 184 185 189 193 198 194 177 180 184 194 196 192 197 194 188 186 201 199 198 207 219 197 193 190 188 194 189 210 233 213
123 132 132 138 146 153 165 169 176 172 164 164 177 187 189 188 197 202 187 176 175 188 204 202 199 198 198 201 201 200 201 201 203 207 208 203 187 194 191 196 205 220 241
74 132 132 137 146 163 174 172 179 174 163 168 198 202 195 196 195 197 192 180 178 183 210 205 194 202 206 211 217 213 208 206 205 203 207 206 194 191 187 193 192 190 204
21 89 116 140 158 169 170 168 176 179 170 178 209 218 201 200 207 190 183 177 186 207 211 207 200 207 204 215 216 210 211 221 223 210 201 181 159 148 165 175 178 174 188
45 56 95 134 176 176 172 182 183 189 183 195 218 217 207 201 200 184 176 180 196 209 209 213 200 208 213 198 187 193 205 208 212 223 213 176 163 158 156 167 172 170 187
15 17 6 340 203 199 196 188 186 178 191 187 193 201 219 211 191 192 190 187 194 198 203 209 197 196 210 204 190 193 191 211 210 208 217 216 195 181 184 192 200 206 219
10 0 353 352 339 320 73 142 185 177 178 156 182 218 215 211 193 188 200 201 201 196 200 211 205 197 213 206 200 202 201 225 218 209 214 203 197 203 198 200 194 215 232
359 352 350 347 343 348 12 149 232 187 154 149 220 231 206 199 206 205 205 205 208 208 201 199 203 195 207 204 200 196 194 209 209 205 219 220 195 185 186 175 211 233 241
4 1 357 354 356 347 359 32 262 269 222 207 215 219 200 194 209 215 210 213 207 205 200 197 193 183 194 199 194 187 182 198 206 201 204 214 198 184 164 176 199 228 239
2 2 3 2 351 346 348 302 279 265 265 255 237 214 188 186 198 193 199 205 194 185 194 195 198 191 198 197 196 192 191 198 198 193 189 201 186 195 215 226 212 230 240
359 360 359 358 345 337 340 312 284 265 246 233 216 206 196 195 198 176 202 203 190 191 197 195 205 211 202 185 195 197 207 210 187 196 189 185 179 207 244 249 229 238 256
346 351 351 345 340 340 331 308 301 287 253 244 221 213 211 202 194 184 191 201 196 198 200 198 205 204 183 184 189 193 202 208 198 196 183 185 189 203 224 226 238 245 233
337 342 340 339 340 337 330 325 312 296 276 257 241 221 217 216 200 183 186 194 199 197 196 201 209 202 180 184 182 187 198 197 196 195 174 190 220 230 226 231 241 232 217
329 334 326 327 328 328 333 332 327 318 284 266 254 229 213 205 198 187 192 198 202 198 200 206 198 191 200 202 186 180 191 189 183 159 151 177 201 212 221 229 233 226 213
323 317 324 328 323 327 331 327 326 324 311 288 273 265 224 201 193 182 174 310 220 213 206 199 198 215 204 185 183 183 185 184 167 154 177 198 205 207 211 212 221 226 220